TimeMDT,TemperatureF,Dew PointF,Humidity,Sea Level PressureIn,VisibilityMPH,Wind Direction,Wind SpeedMPH,Gust SpeedMPH,PrecipitationIn,Events,Conditions,WindDirDegrees,DateUTC
12:53 AM,68.0,50.0,52,29.70,10.0,East,6.9,-,N/A,,Clear,100,2013-06-24 06:53:00
1:53 AM,66.9,51.1,57,29.67,10.0,Calm,Calm,-,N/A,,Clear,0,2013-06-24 07:53:00
2:53 AM,64.0,55.0,73,29.68,10.0,East,5.8,-,N/A,,Clear,80,2013-06-24 08:53:00
3:53 AM,63.0,53.1,70,29.68,10.0,NE,8.1,-,N/A,,Clear,50,2013-06-24 09:53:00
4:53 AM,63.0,53.1,70,29.67,10.0,ESE,5.8,-,N/A,,Clear,120,2013-06-24 10:53:00
5:53 AM,62.1,53.1,72,29.69,10.0,Calm,Calm,-,N/A,,Clear,0,2013-06-24 11:53:00
6:53 AM,64.0,55.9,75,29.69,10.0,ENE,4.6,-,N/A,,Clear,60,2013-06-24 12:53:00
7:53 AM,71.1,53.1,53,29.68,10.0,Calm,Calm,-,N/A,,Clear,0,2013-06-24 13:53:00
8:53 AM,77.0,51.1,40,29.66,10.0,Calm,Calm,-,N/A,,Clear,0,2013-06-24 14:53:00
9:53 AM,82.0,52.0,35,29.63,10.0,SSW,15.0,21.9,N/A,,Clear,210,2013-06-24 15:53:00
10:53 AM,84.0,52.0,33,29.65,10.0,SSW,13.8,23.0,N/A,,Clear,200,2013-06-24 16:53:00
11:53 AM,87.1,53.1,31,29.62,10.0,South,11.5,-,N/A,,Clear,180,2013-06-24 17:53:00
12:53 PM,90.0,53.1,28,29.59,10.0,South,11.5,17.3,N/A,,Clear,190,2013-06-24 18:53:00
1:53 PM,91.0,52.0,26,29.56,10.0,SSE,12.7,17.3,N/A,,Clear,150,2013-06-24 19:53:00
2:53 PM,91.9,48.9,23,29.55,10.0,South,15.0,21.9,N/A,,Clear,190,2013-06-24 20:53:00
3:53 PM,91.9,46.0,21,29.55,10.0,South,17.3,21.9,N/A,,Clear,170,2013-06-24 21:53:00
4:53 PM,93.0,48.0,21,29.53,10.0,South,16.1,-,N/A,,Clear,180,2013-06-24 22:53:00
5:53 PM,90.0,54.0,29,29.53,10.0,SSE,18.4,26.5,N/A,,Clear,150,2013-06-24 23:53:00
6:53 PM,84.9,55.0,36,29.52,10.0,SE,13.8,-,N/A,,Clear,140,2013-06-25 00:53:00
7:01 PM,84.2,55.4,37,29.68,10.0,SE,13.8,-,N/A,Thunderstorm,Clear,130,2013-06-25 01:01:00
7:26 PM,84.2,55.4,37,29.66,10.0,SE,13.8,-,N/A,,Clear,130,2013-06-25 01:26:00
7:53 PM,82.9,57.9,42,29.53,10.0,ESE,17.3,-,N/A,,Clear,120,2013-06-25 01:53:00
8:53 PM,80.1,57.0,45,29.57,10.0,ENE,23.0,33.4,N/A,,Clear,70,2013-06-25 02:53:00
9:53 PM,75.0,54.0,48,29.62,10.0,East,19.6,26.5,N/A,,Clear,80,2013-06-25 03:53:00
10:53 PM,73.9,55.9,53,29.60,10.0,East,19.6,-,N/A,,Clear,100,2013-06-25 04:53:00
11:53 PM,71.1,57.0,61,29.63,10.0,SE,6.9,-,N/A,,Clear,140,2013-06-25 05:53:00